LAOSAT 1

Last updated on Tue Oct 15 2024 00:02:40 GMT+0000 (Coordinated Universal Time)

1 41034U 15067A 24288.51507748 -.00000345 00000+0 00000+0 0 9993 2 41034 0.0426 17.5842 0001856 122.6613 197.2764 1.00271864 32734
UTC large
Height (km)
Speed (km/s)
/
Latitude / Longitude
Inclination (degrees)
Orbital Period (minutes)
Azimuth
Elevation
Range (km)
Doppler Factor

Next 0 passes for location: London (51.5072 / 0.1276)

Sorry there are no passes over London.